Stanley, ND

7:14 AM CDT on May 25, 2018 (GMT -0500)
Stanley

Weather History for K08D - October, 2013

Change the Weather History Date:

Friday, October 4, 2013

  Actual Average (KMIB) Record (KMIB)
Temperature  
Mean Temperature 36 °F -  
Max Temperature 41 °F 59 °F 80 °F (1996)
Min Temperature 32 °F 34 °F 17 °F (2004)
Degree Days  
Heating Degree Days 28    
Moisture  
Dew Point 32 °F    
Average Humidity 83    
Maximum Humidity 100    
Minimum Humidity 65    
Precipitation  
Precipitation 0.00 in - - ()
Sea Level Pressure  
Sea Level Pressure 30.32 in    
Wind  
Wind Speed 11 mph (NNE)    
Max Wind Speed 16 mph    
Max Gust Speed 23 mph    
Visibility 10 miles    
Events      
Averages and records for this station are not official NWS values.
T = Trace of Precipitation, MM = Missing Value Source: NWS Daily Summary

Daily Weather History Graph

Daily Weather History Graph

Search for Another Location

Airport or City:

Astronomy

Oct. 04, 2013 Rise Set
Actual Time 7:53 AM CDT 7:21 PM CDT
Civil Twilight 7:22 AM CDT 7:53 PM CDT
Nautical Twilight 6:46 AM CDT 8:29 PM CDT
Astronomical Twilight 6:09 AM CDT 9:05 PM CDT
Moon 7:32 AM CDT (10/4) 7:02 PM CDT (10/4)
Length of Visible Light 12h 30m
Length of Day
11h 28m
Waning Crescent, 0% of the Moon is Illuminated
Oct 4
Waning Crescent
Oct 4
New
Oct 11
First Quarter
Oct 18
Full
Oct 26
Last Quarter

Hourly Weather History & Observations

Time (CDT) Temp. Windchill Dew Point Humidity Pressure Visibility Wind Dir Wind Speed Gust Speed Precip Events Conditions
12:15 AM 41.0 °F 34.7 °F 39.2 °F 93% 30.25 in 10.0 mi NE 10.4 mph 16.1 mph N/A   Overcast
12:35 AM 41.0 °F 34.7 °F 39.2 °F 93% 30.25 in 10.0 mi NE 10.4 mph 19.6 mph N/A   Overcast
12:55 AM 41.0 °F 35.8 °F 39.2 °F 93% 30.27 in 10.0 mi NNE 8.1 mph 16.1 mph N/A   Overcast
1:15 AM 41.0 °F 34.7 °F 39.2 °F 93% 30.27 in 10.0 mi NE 10.4 mph - N/A   Overcast
1:35 AM 41.0 °F 35.2 °F 39.2 °F 93% 30.26 in 10.0 mi NNE 9.2 mph - N/A   Overcast
1:55 AM 41.0 °F 34.3 °F 39.2 °F 93% 30.26 in 10.0 mi NNE 11.5 mph 16.1 mph N/A   Overcast
2:15 AM 41.0 °F 33.9 °F 39.2 °F 93% 30.26 in 10.0 mi NE 12.7 mph 18.4 mph N/A   Overcast
2:35 AM 39.2 °F 32.5 °F 39.2 °F 100% 30.27 in 10.0 mi NNE 10.4 mph 18.4 mph N/A   Overcast
2:55 AM 39.2 °F 32.5 °F 39.2 °F 100% 30.28 in 10.0 mi NE 10.4 mph 18.4 mph N/A   Overcast
3:15 AM 39.2 °F 33.0 °F 39.2 °F 100% 30.29 in 10.0 mi NE 9.2 mph 17.3 mph N/A   Overcast
3:35 AM 37.4 °F 29.8 °F 35.6 °F 93% 30.30 in 10.0 mi NE 11.5 mph 21.9 mph N/A   Overcast
3:55 AM 37.4 °F 29.8 °F 37.4 °F 100% 30.31 in 10.0 mi ENE 11.5 mph 17.3 mph N/A   Overcast
4:15 AM 37.4 °F 30.8 °F 35.6 °F 93% 30.31 in 10.0 mi NE 9.2 mph 19.6 mph N/A   Overcast
4:35 AM 37.4 °F 31.4 °F 35.6 °F 93% 30.31 in 10.0 mi ENE 8.1 mph 17.3 mph N/A   Overcast
4:55 AM 37.4 °F 30.3 °F 35.6 °F 93% 30.30 in 10.0 mi NE 10.4 mph - N/A   Overcast
5:15 AM 37.4 °F 31.4 °F 35.6 °F 93% 30.32 in 10.0 mi NE 8.1 mph - N/A   Overcast
5:35 AM 37.4 °F 30.8 °F 35.6 °F 93% 30.33 in 10.0 mi NE 9.2 mph - N/A   Overcast
5:55 AM 37.4 °F 30.8 °F 33.8 °F 87% 30.33 in 10.0 mi NE 9.2 mph 16.1 mph N/A   Overcast
6:15 AM 35.6 °F 28.6 °F 33.8 °F 93% 30.33 in 10.0 mi NE 9.2 mph - N/A   Overcast
6:35 AM 35.6 °F 28.6 °F 33.8 °F 93% 30.34 in 10.0 mi NE 9.2 mph - N/A   Mostly Cloudy
6:55 AM 35.6 °F 29.2 °F 33.8 °F 93% 30.34 in 10.0 mi NE 8.1 mph 17.3 mph N/A   Mostly Cloudy
7:35 AM 35.6 °F 28.6 °F 33.8 °F 93% 30.35 in 10.0 mi NE 9.2 mph - N/A   Mostly Cloudy
7:55 AM 35.6 °F 29.2 °F 33.8 °F 93% 30.36 in 10.0 mi NNE 8.1 mph - N/A   Overcast
8:15 AM 35.6 °F 28.6 °F 35.6 °F 100% 30.36 in 10.0 mi NE 9.2 mph - N/A   Overcast
8:35 AM 35.6 °F 28.6 °F 33.8 °F 93% 30.36 in 10.0 mi NE 9.2 mph - N/A   Overcast
8:55 AM 35.6 °F 27.1 °F 33.8 °F 93% 30.36 in 10.0 mi NE 12.7 mph 19.6 mph N/A   Overcast
9:15 AM 35.6 °F 27.5 °F 33.8 °F 93% 30.37 in 10.0 mi NE 11.5 mph 18.4 mph N/A   Overcast
9:35 AM 35.6 °F 27.5 °F 32.0 °F 87% 30.37 in 10.0 mi NNE 11.5 mph 18.4 mph N/A   Overcast
9:55 AM 35.6 °F 28.0 °F 32.0 °F 87% 30.37 in 10.0 mi NE 10.4 mph 17.3 mph N/A   Overcast
10:15 AM 35.6 °F 28.6 °F 32.0 °F 87% 30.37 in 10.0 mi NE 9.2 mph - N/A   Overcast
12:35 PM 35.6 °F 26.2 °F 32.0 °F 87% 30.37 in 10.0 mi NNE 15.0 mph 21.9 mph N/A   Unknown
12:55 PM 35.6 °F 26.6 °F 32.0 °F 87% 30.37 in 10.0 mi NNE 13.8 mph 21.9 mph N/A   Overcast
1:15 PM 35.6 °F 27.1 °F 32.0 °F 87% 30.37 in 10.0 mi NNE 12.7 mph 18.4 mph N/A   Overcast
1:35 PM 37.4 °F 28.5 °F 32.0 °F 81% 30.36 in 10.0 mi NNE 15.0 mph 23.0 mph N/A   Overcast
1:55 PM 37.4 °F 29.3 °F 32.0 °F 81% 30.35 in 10.0 mi NNE 12.7 mph 20.7 mph N/A   Overcast
2:15 PM 37.4 °F 28.9 °F 30.2 °F 75% 30.34 in 10.0 mi NNE 13.8 mph 18.4 mph N/A   Overcast
2:35 PM 37.4 °F 28.9 °F 28.4 °F 70% 30.35 in 10.0 mi NNE 13.8 mph 19.6 mph N/A   Overcast
2:55 PM 37.4 °F 30.8 °F 28.4 °F 70% 30.35 in 10.0 mi NNE 9.2 mph 16.1 mph N/A   Overcast
3:15 PM 37.4 °F 28.5 °F 26.6 °F 65% 30.34 in 10.0 mi NNE 15.0 mph 20.7 mph N/A   Mostly Cloudy
3:35 PM 37.4 °F 29.3 °F 28.4 °F 70% 30.34 in 10.0 mi NNE 12.7 mph 19.6 mph N/A   Scattered Clouds
3:55 PM 37.4 °F 28.5 °F 28.4 °F 70% 30.34 in 10.0 mi NNE 15.0 mph 20.7 mph N/A   Mostly Cloudy
4:15 PM 37.4 °F 29.3 °F 28.4 °F 70% 30.34 in 10.0 mi NNE 12.7 mph 20.7 mph N/A   Mostly Cloudy
4:35 PM 37.4 °F 29.8 °F 28.4 °F 70% 30.34 in 10.0 mi NNE 11.5 mph 19.6 mph N/A   Mostly Cloudy
4:55 PM 37.4 °F 29.8 °F 28.4 °F 70% 30.33 in 10.0 mi NNE 11.5 mph 19.6 mph N/A   Mostly Cloudy
5:15 PM 37.4 °F 28.9 °F 28.4 °F 70% 30.33 in 10.0 mi NNE 13.8 mph 20.7 mph N/A   Partly Cloudy
5:35 PM 37.4 °F 30.3 °F 28.4 °F 70% 30.33 in 10.0 mi NE 10.4 mph 20.7 mph N/A   Partly Cloudy
5:55 PM 37.4 °F 28.5 °F 28.4 °F 70% 30.32 in 10.0 mi NNE 15.0 mph 20.7 mph N/A   Partly Cloudy
6:15 PM 37.4 °F 28.2 °F 28.4 °F 70% 30.33 in 10.0 mi NNE 16.1 mph 21.9 mph N/A   Clear
6:35 PM 37.4 °F 30.3 °F 28.4 °F 70% 30.32 in 10.0 mi NNE 10.4 mph 20.7 mph N/A   Clear
6:55 PM 37.4 °F 29.8 °F 26.6 °F 65% 30.32 in 10.0 mi NNE 11.5 mph 18.4 mph N/A   Clear
7:15 PM 37.4 °F 29.8 °F 28.4 °F 70% 30.32 in 10.0 mi North 11.5 mph 17.3 mph N/A   Clear
7:35 PM 35.6 °F 27.5 °F 28.4 °F 75% 30.31 in 10.0 mi North 11.5 mph - N/A   Clear
7:55 PM 35.6 °F 27.1 °F 28.4 °F 75% 30.31 in 10.0 mi North 12.7 mph - N/A   Clear
8:15 PM 35.6 °F 27.5 °F 28.4 °F 75% 30.30 in 10.0 mi NNE 11.5 mph - N/A   Partly Cloudy
8:35 PM 35.6 °F 28.0 °F 28.4 °F 75% 30.29 in 10.0 mi NNE 10.4 mph - N/A   Partly Cloudy
8:55 PM 35.6 °F 26.6 °F 28.4 °F 75% 30.27 in 10.0 mi NNE 13.8 mph - N/A   Clear
9:15 PM 35.6 °F 27.5 °F 28.4 °F 75% 30.27 in 10.0 mi NNE 11.5 mph 19.6 mph N/A   Clear
9:35 PM 35.6 °F 27.1 °F 28.4 °F 75% 30.26 in 10.0 mi NNE 12.7 mph 18.4 mph N/A   Clear
9:55 PM 35.6 °F 28.0 °F 28.4 °F 75% 30.27 in 10.0 mi NNE 10.4 mph 16.1 mph N/A   Clear
10:15 PM 35.6 °F 28.6 °F 28.4 °F 75% 30.28 in 10.0 mi NNE 9.2 mph - N/A   Clear
10:35 PM 35.6 °F 28.0 °F 28.4 °F 75% 30.28 in 10.0 mi NNE 10.4 mph 16.1 mph N/A   Clear
10:55 PM 35.6 °F 28.0 °F 28.4 °F 75% 30.27 in 10.0 mi NNE 10.4 mph - N/A   Clear
11:15 PM 33.8 °F 25.8 °F 28.4 °F 81% 30.27 in 10.0 mi NNE 10.4 mph - N/A   Clear
11:35 PM 32.0 °F 23.0 °F 28.4 °F 87% 30.26 in 10.0 mi NNE 11.5 mph 16.1 mph N/A   Clear
11:55 PM 32.0 °F 24.2 °F 28.4 °F 87% 30.26 in 10.0 mi NNE 9.2 mph 16.1 mph N/A   Clear